Change the Weather History Date:

Sunday, December 22, 2013

  Actual Average Record
Temperature  
Mean Temperature 21 °F -  
Max Temperature 26 °F 31 °F 50 °F (1999)
Min Temperature 17 °F 23 °F 1 °F (2008)
Degree Days  
Heating Degree Days 44    
Moisture  
Dew Point 20 °F    
Average Humidity 90    
Maximum Humidity 96    
Minimum Humidity 82    
Precipitation  
Precipitation 0.21 in - - ()
Sea Level Pressure  
Sea Level Pressure 29.55 in    
Wind  
Wind Speed 10 mph (WNW)    
Max Wind Speed 16 mph    
Max Gust Speed -    
Visibility 2 miles    
Events Fog , Snow    
Averages and records for this station are not official NWS values.
T = Trace of Precipitation, MM = Missing Value Source: NWS Daily Summary

Daily Weather History Graph

Daily Weather History Graph

Search for Another Location

Airport or City:

Trip Planner

Search our weather history database for the weather conditions in past years. The results will help you decide how hot, cold, wet, or windy it might be!

Date:

Astronomy

Dec. 22, 2013 Rise Set
Actual Time 8:57 AM AKST 3:04 PM AKST
Civil Twilight 8:02 AM AKST 3:59 PM AKST
Nautical Twilight 7:07 AM AKST 4:54 PM AKST
Astronomical Twilight 6:16 AM AKST 5:45 PM AKST
Moon 9:42 PM AKST (12/22) 10:45 AM AKST (12/22)
Length of Visible Light 7h 57m
Length of Day
6h 06m
Waning Gibbous, 75% of the Moon is Illuminated
Dec 22
Waning Gibbous
Dec 25
Last Quarter
Jan 1
New
Jan 7
First Quarter
Jan 15
Full

Hourly Weather History & Observations

Time (AKST) Temp. Windchill Dew Point Humidity Pressure Visibility Wind Dir Wind Speed Gust Speed Precip Events Conditions
12:34 AM 21.9 °F 13.4 °F 17.1 °F 82% 29.81 in 2.5 mi WNW 6.9 mph - 0.00 in Snow Light Snow
12:43 AM 19.9 °F 11.1 °F 16.0 °F 85% 29.81 in 3.0 mi WNW 6.9 mph - 0.00 in Snow Light Snow
12:52 AM 19.4 °F 10.4 °F 15.8 °F 86% 29.80 in 2.0 mi WNW 6.9 mph - 0.00 in Snow Light Snow
12:54 AM 19.0 °F 10.0 °F 16.0 °F 88% 29.81 in 1.8 mi WNW 6.9 mph - 0.00 in Snow Light Snow
1:54 AM 19.0 °F 6.8 °F 16.0 °F 88% 29.78 in 1.5 mi WNW 11.5 mph - 0.00 in Snow Light Snow
2:18 AM 18.0 °F 6.1 °F 16.0 °F 92% 29.75 in 1.0 mi West 10.4 mph - 0.01 in Snow Light Snow
2:52 AM 17.6 °F 5.0 °F 15.8 °F 93% 29.73 in 1.5 mi WNW 11.5 mph - 0.02 in Snow Light Snow
2:54 AM 18.0 °F 6.1 °F 15.1 °F 88% 29.74 in 1.8 mi WNW 10.4 mph - 0.02 in Snow Light Snow
3:22 AM 21.0 °F 10.6 °F 18.0 °F 88% 29.72 in 0.5 mi WNW 9.2 mph - 0.01 in Fog , Snow Snow
3:43 AM 19.9 °F 8.6 °F 18.0 °F 92% 29.70 in 0.5 mi WNW 10.4 mph - 0.03 in Fog , Snow Snow
3:54 AM 19.0 °F 6.8 °F 16.0 °F 88% 29.70 in 0.5 mi WNW 11.5 mph - 0.04 in Fog , Snow Snow
4:24 AM 19.0 °F 5.6 °F 16.0 °F 88% 29.68 in 0.8 mi WNW 13.8 mph - 0.01 in Snow Light Snow
4:54 AM 19.0 °F 6.1 °F 16.0 °F 88% 29.67 in 0.8 mi WNW 12.7 mph - 0.02 in Snow Light Snow
5:34 AM 21.9 °F 10.4 °F 19.0 °F 89% 29.64 in 1.0 mi WNW 11.5 mph - 0.02 in Snow Light Snow
5:54 AM 21.9 °F 10.4 °F 19.0 °F 89% 29.64 in 0.8 mi WNW 11.5 mph - 0.02 in Snow Light Snow
6:54 AM 21.9 °F 8.7 °F 19.0 °F 89% 29.61 in 0.8 mi WNW 15.0 mph - 0.02 in Snow Light Snow
7:32 AM 23.0 °F 12.4 °F 19.9 °F 88% 29.57 in 0.5 mi WNW 10.4 mph - 0.02 in Fog , Snow Snow
7:48 AM 19.4 °F 7.2 °F 17.6 °F 93% 29.57 in 1.0 mi WNW 11.5 mph - 0.03 in Snow Light Snow
7:54 AM 19.9 °F 7.9 °F 17.1 °F 89% 29.58 in 1.0 mi WNW 11.5 mph - 0.04 in Snow Light Snow
8:11 AM 21.0 °F 7.6 °F 18.0 °F 88% 29.56 in 1.2 mi WNW 15.0 mph - 0.00 in Snow Light Snow
8:54 AM 24.1 °F 12.5 °F 19.9 °F 84% 29.55 in 1.8 mi WNW 12.7 mph - 0.00 in Snow Light Snow
9:03 AM 21.9 °F 11.0 °F 19.9 °F 92% 29.54 in 2.0 mi WNW 10.4 mph - 0.00 in Snow Light Snow
9:13 AM 19.9 °F 8.6 °F 18.0 °F 92% 29.54 in 1.5 mi WNW 10.4 mph - 0.00 in Snow Light Snow
9:54 AM 19.9 °F 6.2 °F 18.0 °F 92% 29.54 in 1.0 mi WNW 15.0 mph - 0.01 in Snow Light Snow
10:06 AM 19.9 °F 5.7 °F 18.0 °F 92% 29.52 in 0.5 mi WNW 16.1 mph - 0.00 in Fog , Snow Snow
10:46 AM 21.9 °F 11.7 °F 19.9 °F 92% 29.51 in 1.0 mi WNW 9.2 mph - 0.00 in Snow Light Snow
10:52 AM 21.2 °F 10.1 °F 19.4 °F 93% 29.50 in 0.8 mi WNW 10.4 mph - 0.01 in Snow Light Snow
10:54 AM 21.0 °F 9.9 °F 19.0 °F 92% 29.51 in 0.8 mi WNW 10.4 mph - 0.01 in Snow Light Snow
11:05 AM 21.0 °F 9.9 °F 19.0 °F 92% 29.50 in 1.0 mi WNW 10.4 mph - 0.00 in Snow Light Snow
11:37 AM 21.9 °F 9.2 °F 19.9 °F 92% 29.48 in 0.5 mi WNW 13.8 mph - 0.00 in Fog , Snow Snow
11:54 AM 21.9 °F 8.7 °F 19.0 °F 89% 29.49 in 0.5 mi WNW 15.0 mph - 0.00 in Fog , Snow Snow
12:01 PM 21.9 °F 9.2 °F 19.0 °F 89% 29.48 in 0.5 mi WNW 13.8 mph - 0.01 in Fog , Snow Snow
12:13 PM 21.9 °F 9.2 °F 19.9 °F 92% 29.48 in 0.8 mi WNW 13.8 mph - 0.01 in Snow Light Snow
12:22 PM 21.9 °F 8.2 °F 19.0 °F 89% 29.48 in 1.5 mi WNW 16.1 mph - 0.01 in Snow Light Snow
12:31 PM 21.9 °F 9.2 °F 19.9 °F 92% 29.47 in 2.0 mi WNW 13.8 mph - 0.01 in Snow Light Snow
12:44 PM 21.9 °F 9.2 °F 19.9 °F 92% 29.47 in 1.2 mi WNW 13.8 mph - 0.01 in Snow Light Snow
12:54 PM 21.9 °F 9.8 °F 19.9 °F 92% 29.48 in 1.5 mi WNW 12.7 mph - 0.01 in Snow Light Snow
1:24 PM 23.0 °F 13.1 °F 21.0 °F 92% 29.47 in 3.0 mi WNW 9.2 mph - 0.00 in Snow Light Snow
1:45 PM 23.0 °F 11.1 °F 21.0 °F 92% 29.47 in 1.8 mi WNW 12.7 mph - 0.00 in Snow Light Snow
1:54 PM 23.0 °F 13.9 °F 21.0 °F 92% 29.47 in 1.0 mi WNW 8.1 mph - 0.00 in Snow Light Snow
2:06 PM 23.0 °F 12.4 °F 21.0 °F 92% 29.47 in 3.0 mi WNW 10.4 mph - 0.00 in Snow Light Snow
2:46 PM 23.0 °F - 21.0 °F 92% 29.47 in 2.5 mi Calm Calm - 0.00 in Snow Light Snow
2:52 PM 23.0 °F - 21.2 °F 93% 29.47 in 3.0 mi Calm Calm - 0.00 in Snow Light Snow
2:54 PM 23.0 °F 18.4 °F 21.0 °F 92% 29.48 in 4.0 mi WNW 3.5 mph - 0.00 in Snow Light Snow
3:54 PM 24.1 °F - 21.0 °F 88% 29.47 in 5.0 mi Calm Calm - 0.00 in Snow Light Snow
4:37 PM 24.1 °F 13.7 °F 21.0 °F 88% 29.47 in 2.0 mi West 10.4 mph - 0.00 in Snow Light Snow
4:45 PM 23.0 °F 12.4 °F 21.0 °F 92% 29.46 in 1.8 mi WNW 10.4 mph - 0.00 in Snow Light Snow
4:52 PM 23.0 °F 13.9 °F 21.2 °F 93% 29.46 in 2.5 mi WNW 8.1 mph - 0.00 in Snow Light Snow
4:54 PM 23.0 °F 15.8 °F 21.0 °F 92% 29.47 in 2.5 mi WNW 5.8 mph - 0.00 in Snow Light Snow
5:01 PM 23.0 °F 17.0 °F 21.0 °F 92% 29.46 in 4.0 mi WNW 4.6 mph - 0.00 in Snow Light Snow
5:54 PM 23.0 °F 13.1 °F 21.0 °F 92% 29.47 in 2.5 mi WNW 9.2 mph - 0.00 in Snow Light Snow
6:15 PM 23.0 °F 11.1 °F 21.0 °F 92% 29.46 in 1.8 mi WNW 12.7 mph - 0.00 in Snow Light Snow
6:27 PM 23.0 °F 12.4 °F 21.0 °F 92% 29.46 in 2.5 mi WNW 10.4 mph - 0.00 in Snow Light Snow
6:41 PM 23.0 °F 12.4 °F 21.9 °F 96% 29.46 in 3.0 mi WNW 10.4 mph - 0.00 in Snow Light Snow
6:54 PM 23.0 °F 12.4 °F 21.0 °F 92% 29.47 in 4.0 mi WNW 10.4 mph - 0.00 in Snow Light Snow
7:51 PM 24.8 °F 19.1 °F 23.0 °F 93% 29.46 in 2.0 mi WNW 4.6 mph - 0.00 in Snow Light Snow
7:54 PM 24.1 °F 18.2 °F 23.0 °F 96% 29.47 in 2.0 mi WNW 4.6 mph - 0.00 in Snow Light Snow
8:40 PM 23.0 °F 14.7 °F 21.0 °F 92% 29.47 in 1.8 mi WNW 6.9 mph - 0.01 in Snow Light Snow
8:47 PM 24.1 °F 16.0 °F 21.9 °F 91% 29.47 in 2.0 mi WNW 6.9 mph - 0.01 in Snow Light Snow
8:54 PM 24.1 °F 17.0 °F 21.9 °F 91% 29.48 in 2.0 mi WNW 5.8 mph - 0.01 in Snow Light Snow
9:32 PM 24.1 °F 15.2 °F 21.0 °F 88% 29.47 in 3.0 mi WNW 8.1 mph - 0.00 in Snow Light Snow
9:49 PM 24.8 °F 13.4 °F 21.2 °F 86% 29.47 in 2.5 mi WNW 12.7 mph - 0.00 in Snow Light Snow
9:54 PM 24.1 °F 13.7 °F 21.9 °F 91% 29.48 in 2.5 mi WNW 10.4 mph - 0.00 in Snow Light Snow
10:54 PM 25.0 °F 14.2 °F 21.9 °F 88% 29.50 in 2.0 mi WNW 11.5 mph - 0.01 in Snow Light Snow
11:54 PM 26.1 °F 16.2 °F 24.1 °F 92% 29.51 in 2.5 mi WNW 10.4 mph - 0.00 in Snow Light Snow